Weather Roundup
Issued by NWS Corpus Christi, TX

Home | Current Version | Previous Version | Text Only | Print | Product List | Glossary On
Versions: 1 2 3 4 5 6 7 8 9 10 11 12 13 14 15 16 17 18 19 20 21 22 23 24 25 26 27 28 29 30 31 32 33 34 35 36 37 38 39 40 41 42 43 44 45 46 47 48 49 50
653
ASUS44 KCRP 281410
HRRCRP

SOUTH TEXAS REGIONAL WEATHER ROUNDUP
NATIONAL WEATHER SERVICE CORPUS CHRISTI TX
900 AM CDT TUE MAR 28 2017


TXZ229>244-281500-
...CORPUS CHRISTI AREA OBSERVATIONS...

CITY           SKY/WX    TMP DP  RH WIND       PRES   REMARKS
CORPUS CHRISTI PTSUNNY   74  71  91 SE18      29.80R
NAS CORPUS CHR MOSUNNY   75  73  93 SE16      29.80R
ROCKPORT       PTSUNNY   75  71  87 SE17G24   29.81S
KINGSVILLE NAS MOSUNNY   75  73  93 SE15      29.78S
ALICE          CLOUDY    74  71  91 SE10      29.78R
ORANGE GROVE   CLOUDY    74  72  93 S14       29.80R
FALFURRIAS     PTSUNNY   74  71  90 SE9       29.78R
$$

...VICTORIA AREA OBSERVATIONS...

CITY           SKY/WX    TMP DP  RH WIND       PRES   REMARKS
VICTORIA       CLOUDY    74  70  87 SE15      29.84R
BEEVILLE       CLOUDY    74  74 100 SE13G20   29.81R
PLEASANTON     CLOUDY    73  69  89 E10       29.81R FOG
SAN ANTONIO    CLOUDY    71  67  87 SE12      29.83R FOG
$$

...LAREDO AREA OBSERVATIONS...

CITY           SKY/WX    TMP DP  RH WIND       PRES   REMARKS
LAREDO         CLOUDY    75  69  81 SE10      29.76R
COTULLA        CLOUDY    74  68  81 E9        29.77S HAZE
DEL RIO        LGT RAIN  69  68  96 E12       29.75R FOG
MCALLEN        CLOUDY    77  71  82 SE18G28   29.76R
HEBBRONVILLE   CLOUDY    72  68  88 S9        29.78S FOG
$$

...OTHER TEXAS OBSERVATIONS...

CITY           SKY/WX    TMP DP  RH WIND       PRES   REMARKS
BROWNSVILLE    SUNNY     76  72  87 SE16      29.80R
HOUSTON        MOSUNNY   73  70  90 SE8       29.88S
COL. STATION   CLOUDY    72  70  93 SE12      29.86R
AUSTIN         CLOUDY    73  69  87 SE8       29.84R FOG
WACO           CLOUDY    70  66  87 SE9       29.86R
FORT WORTH     DRIZZLE   64  60  87 E9        29.89R
WICHITA FALLS  CLOUDY    55  49  80 E15       29.88S
LUBBOCK        CLOUDY    55  53  93 E20       29.77S FOG
EL PASO        MOSUNNY   60  32  34 NW17      29.79R
$$

...MARINE OBSERVATIONS...

STATION/POSITION TIME  SKY/WX   TEMP    WIND        PRES    VSBY  WAVE   SWELL
                                AIR SEA DIR/SP/G                  HT/PER HT/PER
                 (UTC)          (F)     (DEG/KT/KT) (MB)    (MI)  (FT/S) (FT/S)
PORT ARANSAS     1400            72 73  120/ 15/ 17 1009.4R
BUOY 90 E PORT A 1250            74 72  120/ 16/ 17 1010.3          5/ 7   3/ 8
BUOY 45 SE BAFFI 1250            74     150/ 14/ 16 1008.2          4/ 7   3/ 7
BUOY 200 E PT IS 1250            76 77  120/ 16/ 17 1011.4          5/ 7   2/12
BUOY 15 E GALVES 1250            73 73  120/ 10/ 12 1012.1          3/ 7   2/ 7
$$




USA.gov is the U.S. government's official web portal to all federal, state and local government web resources and services.